Location: Unspecified
(0.0000°N, 0.0000°E)
Time: 08:16:59
(UTC+00:00)

Vanguard 1 Rocket - Pass Details

Date: 06 December 2022
Orbit: 651 x 4224 km, 34.3° (Epoch: 04 February)

Event Time Altitude Azimuth Distance (km) Brightness Sun altitude
Rises 17:34:07 0° 237° (WSW) 7,937 14.5 3.9°
Reaches altitude 10° 17:42:16 10° 222° (SW) 7,270 13.3 2.0°
Maximum altitude 18:00:10 22° 178° (S) 6,340 12.0 -2.1°
Drops below altitude 10° 18:16:11 10° 134° (SE) 6,524 11.5 -5.8°
Sets 18:22:45 0° 119° (ESE) 6,987 11.5 -7.3°
